Carlsbad, NM

6:26 AM MST on February 22, 2017 (GMT -0700)
Cavern City

Weather History for KCNM - September, 2012

Change the Weather History Date:

Saturday, September 22, 2012

  Actual Average Record
Temperature  
Mean Temperature 75 °F -  
Max Temperature 95 °F 81 °F 98 °F (2005)
Min Temperature 57 °F 56 °F 43 °F (1972)
Cooling Degree Days 10    
Growing Degree Days 25 (Base 50)    
Moisture  
Dew Point 32 °F    
Average Humidity 23    
Maximum Humidity 49    
Minimum Humidity 10    
Precipitation  
Precipitation 0.00 in - - ()
Sea Level Pressure  
Sea Level Pressure 30.01 in    
Wind  
Wind Speed 6 mph (SSE)    
Max Wind Speed 12 mph    
Max Gust Speed -    
Visibility 8 miles    
Events      
Averages and records for this station are not official NWS values.
T = Trace of Precipitation, MM = Missing Value Source: NWS Daily Summary

Daily Weather History Graph

Daily Weather History Graph

Search for Another Location

Airport or City:

Trip Planner

Search our weather history database for the weather conditions in past years. The results will help you decide how hot, cold, wet, or windy it might be!

Date:

Astronomy

Sep. 22, 2012 Rise Set
Actual Time 6:45 AM MDT 6:52 PM MDT
Civil Twilight 6:21 AM MDT 7:17 PM MDT
Nautical Twilight 5:52 AM MDT 7:45 PM MDT
Astronomical Twilight 5:23 AM MDT 8:14 PM MDT
Moon 1:45 PM MDT No Moon Set
Length of Visible Light 12h 56m
Length of Day
12h 07m
Waxing Crescent, 49% of the Moon is Illuminated
Sep 22
Waxing Crescent
Sep 22
First Quarter
Sep 29
Full
Oct 8
Last Quarter
Oct 15
New

Hourly Weather History & Observations

Time (MDT) Temp. Dew Point Humidity Pressure Visibility Wind Dir Wind Speed Gust Speed Precip Events Conditions
12:53 AM 62.1 °F 32.0 °F 32% 29.88 in 10.0 mi South 4.6 mph - N/A   Clear
1:53 AM 61.0 °F 33.1 °F 35% 29.89 in 10.0 mi SSW 8.1 mph - N/A   Clear
2:53 AM 62.1 °F 36.0 °F 38% 29.89 in 10.0 mi South 4.6 mph - N/A   Clear
3:53 AM 59.0 °F 36.0 °F 42% 29.91 in 10.0 mi WNW 4.6 mph - N/A   Clear
4:53 AM 57.0 °F 36.0 °F 45% 29.93 in 10.0 mi WSW 5.8 mph - N/A   Clear
5:53 AM 57.0 °F 37.0 °F 47% 29.94 in 10.0 mi NW 5.8 mph - N/A   Clear
6:53 AM 57.0 °F 37.9 °F 49% 29.97 in 10.0 mi NNE 3.5 mph - N/A   Clear
7:53 AM 62.1 °F 37.9 °F 41% 30.01 in 10.0 mi North 3.5 mph - N/A   Clear
8:53 AM 70.0 °F 39.0 °F 32% 30.03 in 10.0 mi Calm Calm - N/A   Clear
9:53 AM 73.9 °F 43.0 °F 33% 30.03 in 10.0 mi East 4.6 mph - N/A   Clear
10:53 AM 79.0 °F 42.1 °F 27% 30.03 in 10.0 mi Variable 3.5 mph - N/A   Clear
11:53 AM 82.9 °F 39.9 °F 22% 30.01 in 10.0 mi Calm Calm - N/A   Clear
12:53 PM 89.1 °F 39.0 °F 17% 29.99 in 10.0 mi ESE 6.9 mph - N/A   Clear
1:53 PM 93.2 °F 30.2 °F 11% 30.12 in 10.0 mi SSE 8.1 mph - N/A   Clear
2:53 PM 93.0 °F 30.9 °F 11% 29.94 in 10.0 mi SSE 9.2 mph - N/A   Clear
3:53 PM 93.0 °F 28.0 °F 10% 29.93 in 10.0 mi South 4.6 mph - N/A   Clear
4:53 PM 93.0 °F 28.9 °F 10% 29.93 in 10.0 mi ESE 9.2 mph - N/A   Clear
5:50 PM 91.4 °F 28.4 °F 10% 30.09 in 0.8 mi SSE 9.2 mph - N/A   Haze
5:53 PM 91.0 °F 28.0 °F 10% 29.94 in 0.8 mi SE 10.4 mph - N/A   Haze
6:03 PM 91.4 °F 26.6 °F 10% 30.09 in 0.2 mi SSE 11.5 mph - N/A   Haze
6:16 PM 89.6 °F 28.4 °F 11% 30.09 in 0.5 mi SE 11.5 mph - N/A   Haze
6:23 PM 89.6 °F 28.4 °F 11% 30.09 in 2.5 mi SSE 10.4 mph - N/A   Haze
6:42 PM 87.8 °F 28.4 °F 12% 30.09 in 10.0 mi SSE 10.4 mph - N/A   Clear
6:53 PM 86.0 °F 28.0 °F 12% 29.95 in 10.0 mi SSE 10.4 mph - N/A   Clear
7:53 PM 81.0 °F 28.0 °F 14% 29.97 in 10.0 mi SSE 9.2 mph - N/A   Clear
8:53 PM 75.0 °F 30.0 °F 19% 29.99 in 10.0 mi SSE 8.1 mph - N/A   Clear
9:07 PM 75.2 °F 30.2 °F 19% 30.13 in 0.8 mi SSE 8.1 mph - N/A   Haze
9:15 PM 73.4 °F 30.2 °F 20% 30.14 in 0.2 mi SSE 8.1 mph - N/A   Haze
9:27 PM 73.4 °F 30.2 °F 20% 30.14 in 1.2 mi South 8.1 mph - N/A   Haze
9:29 PM 73.4 °F 30.2 °F 20% 30.14 in 5.0 mi South 6.9 mph - N/A   Haze
9:53 PM 73.0 °F 30.0 °F 20% 30.00 in 10.0 mi South 9.2 mph - N/A   Clear
10:53 PM 73.0 °F 28.9 °F 20% 30.00 in 10.0 mi South 10.4 mph - N/A   Clear
11:53 PM 72.0 °F 30.0 °F 21% 30.00 in 10.0 mi South 9.2 mph - N/A   Clear